Torna al catalogo

SL-3 DEB

AttivoPO
NORAD 15769·DEBRIS·🇷🇺 Russia

Lanciato May 14, 1981 da Plesetsk Cosmodrome

Loading…

Prossimi Passaggi (prossime 24 ore)

TLE

AggiornatoSource: Space-Track

Epoca: Sep 14, 2026, 13:35 UTC

1 15769U 81043C   26257.56641162 -.00000131  00000-0 -84413-4 0  9998
2 15769  81.2738 104.7286 0061909  37.2261 323.3176 14.07264226167152

Traccia SL-3 DEB in tempo reale con AllMySat

Download on the App Store